GFSGL_250_rhum_114.txt.gz
RH
10 11 11 10 10 11 12 14 19 18 24 29 69 100 94 97 100 100 100 100 100 100 100 100 94 57 44 48 55 31 52 56 97 100 95 100 89 85 100 100 99 96 93
15 14 13 15 26 29 31 22 22 24 31 35 93 97 94 99 83 100 100 100 100 100 100 100 92 50 43 44 43 46 68 74 90 100 100 85 100 97 91 81 82 89 99
36 20 25 61 56 48 27 33 38 42 47 62 85 86 75 84 100 100 89 98 100 100 100 94 74 53 45 50 43 48 88 86 100 99 100 100 66 77 100 100 100 99 100
85 65 56 98 93 73 79 79 52 73 80 79 92 98 100 100 100 100 100 100 100 100 100 96 71 58 63 49 53 48 61 81 88 95 100 100 86 75 76 71 79 96 96
87 100 76 93 100 95 88 69 86 100 100 100 100 100 100 100 100 100 100 100 100 100 100 90 83 99 100 55 61 48 37 67 80 72 70 76 75 74 79 75 74 86 91
92 100 100 100 100 100 93 98 100 100 100 100 100 100 100 100 100 100 100 100 91 80 96 78 99 72 63 62 61 52 37 41 64 67 56 50 41 38 42 54 65 79 100
100 100 100 100 100 100 100 100 100 100 100 100 100 100 100 100 100 100 100 100 94 82 82 70 80 54 64 73 68 51 42 35 56 46 39 39 35 27 27 27 44 100 100
100 100 100 100 100 100 100 100 100 100 100 100 100 100 100 100 100 100 100 100 100 95 83 65 67 84 83 84 62 57 39 33 59 46 36 32 34 46 36 33 31 65 100
100 100 100 100 100 100 100 100 100 100 100 100 100 100 100 100 100 100 100 100 94 88 98 94 95 94 72 58 96 61 37 37 65 52 46 68 61 70 96 65 35 38 100
100 100 100 100 100 100 100 100 100 100 100 100 100 100 100 100 100 100 100 100 96 100 97 72 88 74 95 79 74 48 40 40 80 60 100 100 100 100 100 100 97 98 100
100 100 100 100 100 100 100 100 100 100 100 100 100 100 100 100 100 100 100 98 100 100 99 99 100 100 84 85 68 43 45 42 91 76 100 100 100 100 100 100 100 100 100
100 100 100 100 100 100 100 100 100 100 100 89 96 84 100 90 98 86 92 100 97 83 66 69 88 90 96 75 70 44 44 40 96 99 100 100 100 100 100 100 100 100 95
100 100 100 100 100 100 100 100 100 100 100 100 75 79 97 89 79 96 87 78 78 84 72 97 92 88 84 62 68 66 45 38 71 100 100 100 100 100 100 100 100 100 100
100 100 100 100 100 100 100 100 100 100 100 100 100 100 98 93 96 90 98 100 90 96 95 83 92 68 81 100 92 72 51 42 42 87 100 100 100 100 100 100 100 100 100
99 100 100 100 100 100 100 100 97 94 100 100 100 100 100 100 100 100 100 89 92 87 95 88 100 100 100 95 83 76 64 58 48 45 85 100 100 100 100 100 100 100 100
100 96 94 100 100 100 100 100 100 100 100 98 95 100 100 100 100 100 98 88 93 100 97 98 100 100 100 95 89 79 71 68 54 44 45 52 90 100 100 100 100 100 100
86 97 100 97 88 92 100 100 100 100 100 100 100 100 100 98 98 98 100 100 100 100 100 100 100 98 95 99 98 88 77 65 65 58 48 44 51 99 100 100 100 100 100
73 73 83 96 100 92 95 94 88 97 100 98 100 100 100 100 100 100 100 100 100 100 100 100 99 99 100 98 92 88 73 64 58 56 56 51 46 59 99 100 100 100 100
44 48 48 50 66 66 73 76 80 71 65 74 82 72 71 80 83 81 80 70 66 80 80 75 82 89 84 79 73 66 69 78 67 60 52 48 47 46 69 95 100 100 100
27 29 34 39 41 41 40 45 52 58 65 61 54 62 70 74 75 74 67 58 58 57 55 55 57 57 55 48 49 51 56 58 52 46 43 42 43 43 44 61 91 95 99
17 19 22 26 27 28 30 31 33 35 36 37 37 36 34 30 27 26 25 24 23 21 23 24 25 26 27 30 35 34 29 28 32 33 34 36 36 40 42 44 49 84 88
26 25 24 22 20 19 18 17 16 16 15 15 14 12 11 10 10 9 10 10 10 10 10 10 11 11 12 13 14 15 16 18 19 19 21 24 28 30 34 38 44 46 67
39 36 33 30 26 24 22 20 18 15 13 11 9 8 7 7 7 6 6 6 6 6 6 6 7 7 7 8 8 8 9 10 11 12 13 14 15 20 25 29 34 40 41
53 46 39 34 29 24 20 16 12 9 7 6 6 5 5 5 5 4 4 3 3 3 3 3 4 4 4 4 5 5 6 7 8 9 9 10 11 11 13 18 22 25 30
52 44 37 30 26 20 14 8 5 4 4 3 3 3 3 2 2 2 2 2 2 2 2 2 2 2 2 3 3 3 4 4 5 6 6 7 8 9 10 10 11 13 17
47 37 31 27 19 11 6 4 3 3 3 2 2 2 2 2 2 2 2 2 2 2 2 2 2 2 2 2 2 2 2 2 3 3 4 4 5 6 6 7 8 9 9

GFSGL_250_rhum_120.txt.gz
RH
13 11 10 10 9 9 8 8 8 9 10 13 19 82 100 100 100 90 100 71 49 62 70 66 96 97 100 93 71 58 98 100 100 100 100 90 79 63 44 35 27 26 28
14 15 20 20 19 13 8 7 7 7 9 11 70 80 80 77 82 95 100 65 48 64 57 66 94 100 100 100 80 71 100 100 100 100 91 74 80 62 51 35 40 55 34
31 32 33 49 42 16 12 11 9 8 12 28 100 86 79 93 100 100 53 48 65 70 61 75 100 100 100 100 70 59 100 100 100 100 100 99 68 65 47 37 34 63 53
75 55 72 92 88 42 14 18 40 41 43 42 85 100 100 100 100 86 96 74 68 49 57 63 93 100 100 100 100 73 92 100 100 100 100 100 83 77 69 40 38 41 85
63 72 96 100 100 75 48 98 98 85 88 99 100 100 100 100 82 99 100 84 53 51 66 70 99 100 100 100 87 78 100 77 100 100 100 100 100 76 74 45 44 46 40
100 98 93 100 100 99 95 100 98 79 78 100 100 100 100 100 100 98 100 92 62 64 74 94 100 100 100 100 100 99 100 98 100 100 100 100 100 98 63 54 39 44 42
100 84 100 100 98 100 100 100 94 93 100 100 100 100 100 100 100 100 100 100 80 67 95 100 100 100 100 100 100 100 100 100 95 95 97 100 100 87 53 63 49 36 38
100 100 100 100 94 93 97 100 100 100 100 100 100 100 100 100 100 100 100 100 98 100 100 100 100 100 100 100 100 100 100 100 98 100 100 100 100 76 48 64 62 40 38
100 100 100 100 98 100 100 100 100 100 100 100 100 100 100 100 100 100 100 100 100 100 100 100 100 100 100 100 100 100 100 100 100 100 100 100 82 89 58 66 62 50 35
100 100 100 100 100 100 100 100 100 100 100 100 100 100 100 100 100 100 100 100 100 100 100 100 100 100 100 100 100 100 100 100 100 100 100 81 84 66 69 72 63 51 38
100 100 92 100 100 100 100 100 100 100 100 100 100 100 100 100 100 100 100 100 100 100 100 100 100 100 100 100 100 100 100 80 82 86 82 92 73 72 88 79 71 52 43
100 100 100 94 100 100 100 100 100 100 100 100 100 100 100 100 100 100 100 100 100 100 100 100 100 100 100 100 100 100 98 75 77 79 77 67 78 97 74 79 71 56 38
100 100 100 100 100 100 100 100 100 100 100 100 100 96 100 100 100 100 100 100 100 100 100 100 100 100 100 100 100 100 100 75 79 68 70 92 60 53 51 68 79 72 49
97 98 100 100 100 100 100 100 100 100 100 100 100 100 98 100 100 100 100 100 100 100 100 100 100 100 100 100 100 97 90 87 80 90 82 86 67 69 68 58 58 64 61
100 97 100 88 100 100 100 100 100 96 99 100 100 100 100 100 100 100 100 100 100 94 99 100 100 100 100 96 89 95 95 87 88 89 99 99 98 97 90 84 83 71 71
80 100 99 91 95 100 97 98 100 100 96 100 100 100 100 100 100 100 100 100 100 100 99 100 100 100 100 100 100 100 100 95 81 84 93 96 97 93 98 96 91 71 84
67 71 89 100 96 88 93 91 89 91 100 100 92 100 93 96 100 100 100 100 100 100 100 96 86 68 69 84 98 100 96 92 96 88 67 58 53 60 62 71 84 76 71
50 55 57 64 78 92 96 98 92 80 86 84 99 91 88 89 92 95 99 99 94 91 91 88 98 95 87 84 71 60 58 60 61 57 53 59 64 62 56 57 69 70 59
34 30 32 39 47 61 72 81 86 87 87 83 86 79 78 82 80 79 83 81 82 92 92 87 83 80 72 62 54 54 63 67 61 56 52 47 42 38 36 38 40 41 42
31 31 31 31 30 31 31 32 35 68 74 91 88 70 64 67 65 65 67 57 54 56 48 47 48 48 42 42 44 42 39 40 39 39 40 39 41 46 55 65 72 83 85
23 22 21 20 20 20 19 20 23 27 30 35 55 63 60 65 65 61 53 47 44 41 34 27 25 25 28 31 32 34 35 37 41 47 54 52 51 56 61 66 79 83 75
19 19 18 18 18 18 18 18 18 18 18 17 17 19 22 31 38 41 41 36 27 16 14 12 12 14 15 15 16 16 18 20 22 23 24 26 28 31 34 38 41 44 51
22 22 23 24 23 22 23 22 22 21 21 20 20 19 17 15 13 11 10 8 7 7 7 8 7 7 7 7 8 8 7 8 8 8 9 10 11 11 13 15 18 23 25
27 28 33 35 38 38 34 34 36 34 33 30 28 24 21 16 12 9 7 7 6 6 4 4 4 3 3 3 3 3 3 3 3 3 3 4 4 4 5 5 6 7 7
39 44 50 49 46 41 41 39 35 30 26 22 18 14 10 8 5 4 3 3 3 2 2 2 2 2 2 2 2 2 2 2 2 2 2 2 2 2 3 3 3 3 4
54 60 56 50 44 40 35 33 31 25 22 18 12 8 5 3 3 3 2 2 2 2 2 2 2 2 2 2 2 2 2 2 2 2 2 2 2 2 2 2 2 2 2

GFSGL_250_rhum_126.txt.gz
RH
25 24 22 19 16 17 17 18 18 19 20 22 23 24 26 26 32 33 31 36 30 31 55 100 100 100 100 100 100 100 100 74 97 100 100 100 94 99 83 71 72 100 98
32 30 26 23 20 18 17 18 18 19 19 19 18 17 16 16 18 21 22 23 22 22 56 87 98 100 91 100 91 100 100 83 100 100 99 100 100 100 100 100 85 46 67
49 45 40 32 27 23 18 16 16 14 12 12 12 12 11 13 13 14 16 16 18 22 31 70 100 97 100 100 100 100 100 98 100 100 100 100 100 96 100 100 86 56 40
90 77 86 75 76 68 57 39 43 49 29 18 13 11 11 9 9 9 11 12 14 16 34 95 89 100 100 100 100 100 100 100 100 100 100 100 100 100 100 100 100 90 45
100 100 100 100 99 100 90 73 96 99 57 30 21 13 12 10 8 8 8 8 12 17 31 89 100 100 100 100 94 100 100 100 100 89 100 100 99 100 100 100 100 89 77
100 100 100 100 100 100 100 100 100 99 95 58 52 12 10 9 8 8 10 10 12 20 65 72 100 100 95 64 85 99 100 98 100 100 100 100 100 100 100 100 100 100 100
100 100 100 100 100 100 100 100 100 100 100 96 77 44 14 10 10 10 11 13 14 23 73 82 100 99 76 91 100 100 100 100 100 99 100 100 100 100 100 100 100 100 100
100 100 100 100 100 100 100 100 100 100 100 100 100 96 84 61 25 22 20 18 22 37 84 98 65 67 98 73 87 96 73 99 100 90 86 100 100 100 100 95 100 100 100
100 100 100 92 100 100 100 100 100 100 100 100 100 100 100 100 91 46 64 58 59 85 97 98 84 100 90 88 100 100 100 97 100 98 99 75 98 100 100 100 80 91 100
100 100 100 100 99 100 100 100 100 100 100 100 100 100 100 100 100 100 100 100 100 100 95 100 90 100 100 100 92 100 100 100 100 84 100 100 100 100 100 94 74 80 84
100 100 100 100 100 100 95 100 100 100 100 100 100 100 100 100 100 100 100 100 100 85 75 85 94 100 86 99 100 92 100 100 99 99 100 100 100 100 100 100 88 80 79
94 95 100 100 100 100 99 95 100 100 100 100 100 100 100 100 100 100 100 100 100 100 98 87 75 100 98 72 99 100 100 100 100 100 100 100 100 100 100 100 100 99 99
88 99 100 100 100 100 100 100 100 100 100 100 100 100 100 100 100 100 100 100 100 100 100 98 100 100 100 100 88 100 99 100 100 100 100 100 100 100 100 100 100 100 100
71 78 77 81 84 92 100 100 100 96 100 100 100 100 100 100 100 100 100 100 100 100 100 100 98 100 100 100 95 100 87 83 99 95 100 100 100 88 85 100 100 100 100
95 94 83 70 72 67 77 98 100 99 91 100 100 100 100 100 100 100 100 100 100 100 100 100 100 100 100 100 100 100 100 92 86 100 100 100 100 93 90 76 81 96 100
63 66 68 66 59 60 64 74 78 88 95 90 89 99 100 100 100 100 100 100 100 100 100 100 100 100 99 97 99 100 94 100 100 87 94 100 100 94 93 99 60 58 71
66 62 59 61 56 50 50 52 59 69 73 73 75 81 83 89 91 98 97 100 100 100 93 99 100 100 100 96 86 79 81 79 80 78 71 69 79 75 82 86 84 52 52
60 52 49 50 54 48 42 39 39 44 58 68 59 52 61 73 76 72 70 68 70 78 83 81 72 80 90 88 84 71 69 58 52 58 71 72 57 54 50 58 57 48 42
68 65 56 52 50 46 40 34 29 27 29 41 52 52 48 46 49 56 66 62 65 67 66 64 63 64 64 61 59 58 57 56 55 46 40 40 45 51 54 53 43 40 45
50 40 36 31 29 29 26 23 20 17 17 19 22 24 28 34 40 43 40 41 50 59 55 59 62 58 54 52 50 49 50 48 46 45 44 42 42 40 39 39 39 41 40
52 47 36 29 20 19 18 16 15 13 12 12 12 11 13 17 23 26 28 30 32 31 33 35 39 41 40 39 38 36 36 38 36 34 34 34 35 37 41 43 42 40 41
51 47 40 29 20 18 16 15 13 13 13 13 12 11 10 10 10 10 11 12 13 14 16 17 18 19 19 18 19 19 19 18 16 13 13 12 12 13 14 14 16 18 18
45 44 33 23 22 18 14 14 15 14 14 14 14 13 13 12 12 13 13 13 13 12 12 12 11 11 10 9 8 7 6 6 6 6 6 6 6 6 6 6 6 6 6
48 37 26 24 19 15 15 15 15 15 15 15 14 15 15 15 16 18 20 20 22 22 21 17 13 9 6 6 5 5 5 4 3 3 3 2 2 2 2 3 3 3 3
34 25 25 20 17 16 15 15 15 15 15 16 17 20 26 28 26 23 23 23 20 17 14 12 10 8 6 4 4 3 2 2 2 2 2 2 2 2 2 2 2 2 2
22 22 20 19 17 17 16 16 16 17 18 23 27 27 26 27 27 22 19 16 13 10 8 6 5 4 3 2 2 2 2 2 2 2 2 2 2 2 2 2 1 1 1

GFSGL_250_rhum_129.txt.gz
RH
32 29 20 17 21 15 11 10 10 9 9 11 16 18 24 33 34 36 42 40 62 55 36 34 28 35 60 98 100 100 100 100 100 100 100 75 100 97 84 100 100 99 100
37 37 32 24 23 22 21 16 13 13 12 12 15 20 25 32 36 36 37 40 43 49 56 49 27 34 41 70 91 100 100 100 100 100 100 100 100 100 94 100 93 95 86
56 62 67 57 40 32 28 25 24 22 22 20 18 20 25 28 29 28 30 29 30 34 41 42 26 34 43 51 73 100 100 100 96 100 100 99 100 99 100 100 100 99 83
62 70 97 83 75 65 50 43 40 38 33 27 26 28 27 24 21 18 18 19 23 27 31 35 30 28 34 40 55 66 83 99 100 100 99 100 100 97 100 100 100 100 100
88 75 96 96 98 94 85 72 73 65 47 39 38 40 27 21 16 13 13 16 16 16 17 20 22 19 26 38 50 64 70 89 100 100 100 100 100 100 100 100 100 100 100
100 100 100 100 91 100 100 100 99 98 83 78 71 75 67 53 31 16 14 11 10 11 13 14 16 18 19 33 44 55 75 100 100 100 100 98 91 100 100 100 100 100 100
100 100 100 100 100 100 100 100 100 100 100 100 100 96 90 77 37 13 12 12 12 11 10 11 13 16 20 32 39 53 100 100 100 93 100 100 98 100 100 93 100 100 100
100 100 100 100 100 100 100 100 100 100 98 100 100 100 100 98 86 42 18 11 9 10 10 11 12 14 19 33 44 96 100 100 100 100 99 99 80 100 97 100 100 100 92
100 100 95 100 100 100 100 100 100 100 100 99 100 100 100 100 100 92 71 36 12 11 12 13 15 19 24 35 95 100 100 100 100 100 100 99 98 100 100 100 99 100 91
100 100 100 100 100 100 100 100 100 100 100 100 100 100 100 100 100 100 100 99 49 24 19 17 18 22 28 56 100 100 100 100 93 88 76 100 100 100 100 92 100 100 100
100 100 100 100 100 96 93 91 99 100 100 100 100 95 100 100 100 100 100 100 99 78 71 49 30 26 30 52 100 100 100 100 99 100 100 100 100 100 99 99 100 100 83
100 100 100 100 100 100 100 99 98 92 92 100 100 100 92 100 100 100 100 100 100 100 100 77 55 75 60 54 100 100 100 100 100 100 100 90 100 97 77 94 100 90 100
93 94 83 85 92 96 98 100 100 100 100 100 100 100 100 100 100 100 100 100 100 100 100 100 100 100 100 100 100 100 100 100 100 100 100 92 94 100 77 76 79 96 100
87 85 86 88 83 84 88 85 90 97 100 100 100 100 100 98 100 100 100 100 100 100 100 100 100 100 100 100 100 100 100 100 100 93 97 93 100 100 100 80 61 89 79
96 84 72 64 69 76 73 72 73 72 74 80 98 89 96 100 100 100 100 100 100 100 100 100 100 100 100 100 100 100 100 92 99 79 66 67 79 70 100 89 91 80 70
74 72 68 63 58 52 50 52 53 57 57 56 60 76 89 80 87 94 86 99 100 100 100 100 100 100 100 100 100 100 100 100 91 80 61 49 50 58 59 69 74 78 82
69 71 70 68 61 58 58 58 56 53 46 43 40 41 54 58 60 71 83 78 70 98 86 78 97 96 100 100 96 86 86 93 97 79 64 55 51 42 40 41 41 43 57
83 78 72 67 66 63 58 61 57 54 46 42 35 26 26 40 52 52 48 50 78 60 70 83 78 68 78 82 75 78 90 90 88 72 70 64 58 58 58 57 54 49 54
75 76 75 72 62 61 56 41 33 31 30 28 24 20 19 22 23 26 30 34 40 48 57 51 61 70 71 65 64 69 70 68 68 69 71 70 69 73 61 59 60 59 53
76 76 67 66 58 49 43 40 32 27 22 21 20 17 14 13 14 16 19 19 21 24 30 38 42 41 40 40 42 55 69 71 63 62 62 60 57 55 53 53 59 66 61
70 67 61 59 48 44 37 30 27 20 14 11 12 11 10 9 8 7 9 12 15 18 18 17 22 26 30 33 39 42 37 34 34 34 36 38 46 57 60 59 52 44 43
75 64 53 46 45 37 31 28 21 18 13 10 10 9 9 8 9 8 8 8 8 9 10 11 14 14 13 12 13 15 20 23 26 28 28 26 25 26 24 22 21 19 18
70 62 47 43 40 37 32 25 18 17 14 12 11 12 12 11 10 10 9 9 9 9 9 10 9 9 8 8 8 8 8 8 8 8 8 7 6 6 5 5 6 6 6
54 49 45 40 39 34 25 19 17 15 13 14 14 14 13 12 11 11 12 11 11 11 10 10 10 10 9 8 8 8 8 7 7 6 6 6 6 6 6 5 5 5 5
42 40 41 42 31 25 20 18 16 16 16 14 14 13 13 13 13 13 14 16 17 16 15 14 12 11 9 7 5 4 4 4 5 4 3 3 3 2 2 2 2 2 2
44 42 31 27 22 20 18 18 17 16 16 15 14 14 16 18 18 18 18 17 15 13 12 12 11 9 7 5 4 3 2 2 2 2 2 2 2 2 2 2 2 2 2